Погода в Октябрьской

Россия / Владимирская область     56°04′15″N   42°07′26″E
темп.,
°C
ветер,
м/с
пор.,
м/с
влажн.,
%
обл.,
%
осадки,
мм/ч
давл.,
гПа
погр.,
м
23 апреля, пт
пт2300:00+6ю412845 0.0 1019234
03:00+4ююв39918 0.0 1019153
06:00+5ююв411875 0.0 1019249
09:00+11ю59645 0.0 1019520
12:00+15ю675343 0.3 10181482
15:00+14ю595599 0.9 1017814
18:00+13ююв610615 0.6 1016692
21:00+9юв411815 0.7 1016235
24 апреля, сб
сб2400:00+7юв310875 0.0 1014215
03:00+6юв310865 0.1 1012223
06:00+7юв4138757 0.2 1011368
09:00+12ююв7127088 0.5 1009990
12:00+14ююв71056100 0.9 10061736
15:00+12ююз4771100 3.4 1004860
18:00+8з3587100 2.3 1003508
21:00+2з61196100 4.6 1003432
25 апреля, вс
вс2500:00+2з61497100 4.1 1002672
03:00+2з81597100 6.1 1002937
06:00+3з81587100 1.4 10031087
09:00+4з81477100 1.4 10051099
12:00+6з91366100 0.1 10061658
15:00+8з814525 0.3 10082377
18:00+6зюз6116099 0.2 10081290
21:00+3зюз5127797 0.3 1010467
26 апреля, пн
пн2600:00+2юз512825 0.0 1011381
03:000юз38893 0.0 1011182
06:00+1юз378351 0.0 1012248
09:00+6зюз47585 0.0 10121189
12:00+8зюз5645100 0.1 10121922
15:00+9юз4643100 0.1 10112027
18:00+8юз365484 0.2 1011494
21:00+4юз2272100 0.4 101022
27 апреля, вт
вт2700:00+3з1276100 0.0 100917
03:00+1зюз128698 0.2 100912
06:00+1з127987 0.0 100871
09:00+6з235798 0.0 1008640
12:00+9з3440100 0.0 10072421
15:00+9з6544100 0.1 10071852
18:00+7зюз366096 0.7 1008485
21:00+3зюз398010 0.8 1009171